FW8564 Weather Reports


time (UTC)temp
C
wind
direction
speed
KPH
gust
KPH
rain 1hr
cm
rain 24hr
cm
rain mn
cm
humidity
%
barometer
mb
20260505061516 14 338 0.0 0.0 0.00 0.20 0.20 96 1009.9
20260505061005 13 293 0.0 0.0 0.00 0.20 0.20 96 1009.9
20260505060455 13 293 0.0 0.0 0.00 0.20 0.20 96 1010.1
20260505055435 13 135 0.0 0.0 0.00 0.20 0.20 96 1009.9
20260505054925 12 135 0.0 0.0 0.00 0.20 0.20 96 1009.9
20260505054415 12 158 0.0 0.0 0.00 0.20 0.20 96 1009.7
20260505053904 12 158 0.0 0.0 0.00 0.20 0.20 96 1009.6
20260505053355 12 158 0.0 0.0 0.00 0.20 0.20 96 1009.7
20260505051824 12 338 0.0 0.0 0.00 0.20 0.20 96 1009.5
20260505050804 12 315 0.0 0.0 0.00 0.20 0.20 95 1009.6
20260505050254 12 315 0.0 0.0 0.00 0.20 0.20 95 1009.4
20260505041622 12 0 0.0 0.0 0.00 0.20 0.20 95 1009.2
20260505041112 12 90 0.0 0.0 0.00 0.20 0.20 95 1009.3
20260505040049 11 90 0.0 0.0 0.00 0.20 0.20 95 1009.3
20260505035542 12 315 0.0 0.0 0.00 0.20 0.20 95 1009.5
20260505035032 12 315 0.0 0.0 0.00 0.20 0.20 95 1009.5
20260505034522 12 315 0.0 0.0 0.00 0.20 0.20 95 1009.6
20260505034012 12 315 0.0 0.0 0.00 0.20 0.20 95 1009.4
20260505033502 12 315 0.0 0.0 0.00 0.20 0.20 95 1009.5
20260505032951 12 315 0.0 0.0 0.00 0.20 0.20 95 1009.4
20260505031932 12 315 0.0 0.0 0.00 0.20 0.20 95 1009.7
20260505031421 12 315 0.0 0.0 0.00 0.20 0.20 95 1009.5
20260505030911 12 315 0.0 0.0 0.00 0.20 0.20 95 1009.5
20260505030401 12 315 0.0 0.0 0.00 0.20 0.20 94 1009.6
20260505025341 12 338 0.0 0.0 0.00 0.20 0.20 94 1009.5
20260505024831 12 113 0.0 0.0 0.00 0.20 0.20 94 1009.6
20260505023811 12 113 0.0 0.0 0.00 0.20 0.20 94 1009.4
20260505023301 13 315 0.0 0.0 0.00 0.20 0.20 94 1009.4
20260505022240 13 315 0.0 3.2 0.00 0.20 0.20 94 1009.5
20260505020710 13 135 0.0 0.0 0.00 0.20 0.20 93 1009.7
20260505015652 13 338 0.0 0.0 0.03 0.20 0.20 93 1009.4
20260505015145 13 293 0.0 0.0 0.03 0.20 0.20 93 1009.3
20260505014632 13 293 0.0 0.0 0.03 0.20 0.20 93 1009.2
20260505013613 13 293 0.0 0.0 0.13 0.20 0.20 93 1009.4
20260505013101 13 315 0.0 0.0 0.15 0.20 0.20 92 1009.3
20260505012555 13 293 0.0 0.0 0.15 0.20 0.20 93 1009.2
20260505012042 13 248 0.0 0.0 0.18 0.20 0.20 93 1009.2
20260505011532 13 293 0.0 0.0 0.20 0.20 0.20 93 1009.5
20260505011023 13 248 0.0 0.0 0.20 0.20 0.20 93 1009.3
20260505010511 13 248 0.0 0.0 0.20 0.20 0.20 92 1009.1
20260505010003 13 248 0.0 0.0 0.18 0.18 0.18 92 1009.4
20260505004938 14 338 0.0 0.0 0.18 0.18 0.18 92 1009.6
20260505004433 14 338 0.0 0.0 0.18 0.18 0.18 92 1009.5
20260505003925 14 270 0.0 0.0 0.13 0.13 0.13 91 1009.3
20260505003411 14 293 0.0 0.0 0.05 0.05 0.05 92 1009.4
20260505002900 14 338 0.0 0.0 0.05 0.05 0.05 91 1009.4
20260505002349 14 293 0.0 0.0 0.05 0.05 0.05 91 1009.6
20260505001841 14 248 0.0 0.0 0.03 0.03 0.03 91 1009.6
20260504235955 15 270 0.0 0.0 0.00 0.03 0.00 90 1009.5
20260504235441 15 293 0.0 0.0 0.00 0.03 0.00 90 1009.3
20260504234932 15 315 0.0 0.0 0.00 0.03 0.00 90 1009.5
20260504234421 15 315 0.0 0.0 0.00 0.03 0.00 90 1009.3
20260504233915 15 0 0.0 0.0 0.00 0.03 0.00 90 1009.2
20260504233402 15 338 0.0 0.0 0.00 0.03 0.00 90 1009.3
20260504232850 15 338 0.0 0.0 0.00 0.03 0.00 90 1009.2
20260504232340 15 0 0.0 0.0 0.00 0.03 0.00 90 1009.2
20260504231830 15 338 0.0 0.0 0.00 0.03 0.00 91 1009.2
20260504231320 15 0 0.0 0.0 0.00 0.03 0.00 91 1009.1
20260504230809 14 338 0.0 0.0 0.00 0.03 0.00 91 1009.0
20260504230259 15 0 0.0 0.0 0.00 0.03 0.00 91 1008.9
20260504225749 15 338 0.0 0.0 0.00 0.03 0.00 91 1009.0
20260504225239 15 338 0.0 0.0 0.00 0.03 0.00 91 1009.0
20260504224729 15 0 0.0 0.0 0.00 0.03 0.00 90 1009.1
20260504224219 15 23 0.0 0.0 0.00 0.03 0.00 90 1009.0
20260504223716 15 45 0.0 0.0 0.00 0.03 0.00 90 1008.9
20260504223159 15 45 0.0 0.0 0.00 0.03 0.00 91 1008.9
20260504222649 15 315 0.0 0.0 0.00 0.03 0.00 91 1008.9
20260504222139 15 293 0.0 0.0 0.00 0.03 0.00 92 1009.2
20260504221629 15 293 0.0 0.0 0.00 0.03 0.00 92 1009.3
20260504220608 16 270 0.0 0.0 0.00 0.03 0.00 93 1009.2
20260504220058 16 315 0.0 0.0 0.00 0.03 0.00 93 1009.2
20260504215548 16 68 0.0 0.0 0.00 0.03 0.03 93 1009.3
20260504215038 16 45 0.0 0.0 0.00 0.03 0.03 93 1009.3
20260504214528 16 45 0.0 0.0 0.00 0.03 0.03 93 1009.3
20260504214017 16 338 0.0 0.0 0.00 0.03 0.03 93 1009.3
20260504213509 16 338 0.0 0.0 0.00 0.03 0.03 93 1009.4
20260504212957 16 338 0.0 0.0 0.00 0.03 0.03 93 1009.3
20260504211937 16 45 0.0 0.0 0.00 0.03 0.03 93 1009.5
20260504211427 16 45 0.0 0.0 0.00 0.03 0.03 93 1009.7
20260504210917 16 45 0.0 0.0 0.00 0.03 0.03 93 1009.5
20260504210407 16 68 0.0 0.0 0.00 0.03 0.03 93 1009.3
20260504204836 16 68 0.0 0.0 0.00 0.03 0.03 93 1009.4
20260504204327 16 68 0.0 0.0 0.00 0.03 0.03 93 1009.4
20260504203816 16 68 0.0 0.0 0.00 0.03 0.03 93 1009.4
20260504202756 16 68 0.0 0.0 0.00 0.03 0.03 93 1009.4
20260504202246 16 68 0.0 0.0 0.00 0.03 0.03 93 1009.2
20260504201735 16 68 0.0 0.0 0.00 0.03 0.03 92 1009.1
20260504201227 16 90 0.0 0.0 0.00 0.03 0.03 92 1009.1
20260504200715 16 90 0.0 0.0 0.00 0.03 0.03 92 1009.2
20260504200205 16 90 0.0 0.0 0.00 0.03 0.03 92 1009.2
20260504195655 16 158 0.0 0.0 0.00 0.03 0.03 92 1009.0
20260504195146 16 158 0.0 0.0 0.00 0.03 0.03 92 1009.0
20260504194635 16 158 0.0 0.0 0.00 0.03 0.03 92 1009.0
20260504194125 16 158 0.0 0.0 0.00 0.03 0.03 92 1008.9
20260504193616 16 158 0.0 0.0 0.00 0.03 0.03 91 1008.8
20260504193105 16 158 0.0 0.0 0.00 0.03 0.03 91 1008.7
20260504192555 16 158 0.0 0.0 0.00 0.03 0.03 91 1008.5
20260504192044 16 158 0.0 0.0 0.00 0.03 0.03 91 1008.2
20260504191535 16 158 0.0 0.0 0.00 0.03 0.03 91 1007.9
20260504191024 16 158 0.0 0.0 0.00 0.03 0.03 91 1008.0
20260504190514 17 158 0.0 0.0 0.00 0.03 0.03 91 1007.9
20260504190005 17 135 0.0 0.0 0.00 0.03 0.03 90 1008.1
20260504185455 17 135 0.0 0.0 0.00 0.03 0.03 90 1008.1
20260504184944 17 135 0.0 0.0 0.00 0.03 0.03 90 1007.9
20260504183414 17 158 0.0 0.0 0.00 0.03 0.03 89 1007.8
20260504182904 17 180 0.0 0.0 0.00 0.03 0.03 89 1007.8
20260504182354 17 180 0.0 0.0 0.00 0.03 0.03 89 1007.9
20260504181843 17 158 0.0 0.0 0.00 0.03 0.03 89 1007.8
20260504181332 18 180 0.0 0.0 0.00 0.03 0.03 89 1007.8
20260504180823 18 180 0.0 0.0 0.00 0.03 0.03 89 1007.7
20260504180313 18 225 0.0 0.0 0.00 0.03 0.03 89 1007.8
20260504175253 18 203 0.0 0.0 0.00 0.03 0.03 90 1007.9
20260504174743 18 180 0.0 0.0 0.00 0.03 0.03 90 1008.0
20260504173212 18 180 0.0 0.0 0.00 0.03 0.03 90 1007.8
20260504172703 18 135 0.0 0.0 0.00 0.03 0.03 90 1008.1
20260504171642 18 158 0.0 0.0 0.03 0.03 0.03 90 1008.0
20260504171131 18 158 0.0 0.0 0.03 0.03 0.03 90 1007.9
20260504170622 18 248 0.0 0.0 0.03 0.03 0.03 90 1008.1
20260504170112 18 203 0.0 0.0 0.03 0.03 0.03 90 1008.3
20260504160421 18 158 0.0 0.0 0.00 0.00 0.00 90 1008.7
20260504150219 19 180 0.0 0.0 0.00 0.00 0.00 81 1008.4
20260504141037 21 135 0.0 0.0 0.00 0.00 0.00 74 1008.4
20260504140528 21 180 0.0 0.0 0.00 0.00 0.00 75 1008.2
20260504130326 19 113 0.0 0.0 0.00 0.00 0.00 82 1008.8
20260504120125 20 135 0.0 0.0 0.00 0.00 0.00 79 1009.5
20260504100232 20 113 0.0 0.0 0.00 0.00 0.00 78 1009.9
20260504081910 21 135 0.0 0.0 0.00 0.00 0.00 71 1009.4
20260504081400 21 180 0.0 0.0 0.00 0.00 0.00 71 1009.6
20260504080340 21 180 0.0 0.0 0.00 0.00 0.00 72 1009.7
20260504070138 17 270 0.0 0.0 0.00 0.00 0.00 82 1009.6